Location: Foulognes
(49.1413°N, 0.8183°W)
Time: 18:15:29
(UTC+00:00)

SJ 16-02 - Pass Details

Date: 21 October 2019
Orbit: 607 x 616 km, 75.0° (Epoch: 13 November)

Event Time Altitude Azimuth Distance (km) Brightness Sun altitude
Rises 19:57:19 0° 333° (NNW) 2,881 5.4 -29.1°
Reaches altitude 10° 19:59:37 10° 328° (NNW) 1,971 4.5 -29.4°
Enters shadow 20:02:46 38° 295° (WNW) 932 2.6 -29.9°
